When you browse on this site, cookies collect data to enhance your experience and personalize the content and advertising you see.
Visit our Privacy Policy to learn more. By continuing to use the site, you agree to this use of cookies and data.
  • In Czech Republic
  • List of Countries
  • For 7 days
  • Water Temperature
  • Weather Map
  • Weather Widgets
  • user-avatar
    Login

    Hourly Weather Graz

    Today, 23 September, Monday

    Time Temperature Precipitation Wind Pressure Humidity
    00:00 +12°C° 0 mm 1 mps 721 mmHg 85%
    01:00 +12°C° 0 mm 1 mps 721 mmHg 86%
    02:00 +12°C° 0 mm 1 mps 721 mmHg 85%
    03:00 +13°C° 0 mm 1 mps 721 mmHg 83%
    04:00 +13°C° 0 mm 1 mps 720 mmHg 82%
    05:00 +13°C° 0 mm 1 mps 721 mmHg 81%
    06:00 +14°C° 0 mm 1 mps 721 mmHg 80%
    07:00 +14°C° 0 mm 1 mps 721 mmHg 79%
    08:00 +16°C° 0 mm 1 mps 721 mmHg 72%
    09:00 +20°C° 0 mm 1 mps 721 mmHg 65%
    10:00 +20°C° 0 mm 0 mps 722 mmHg 58%
    11:00 +22°C° 0 mm 1 mps 722 mmHg 61%
    12:00 +21°C° 0 mm 1 mps 722 mmHg 64%
    13:00 +20°C° 0 mm 1 mps 722 mmHg 67%
    14:00 +19°C° 0.2 mm 1 mps 722 mmHg 71%
    15:00 +19°C° 0.2 mm 1 mps 722 mmHg 75%
    16:00 +18°C° 0.2 mm 1 mps 722 mmHg 79%
    17:00 +16°C° 0.8 mm 1 mps 722 mmHg 84%
    18:00 +16°C° 0.8 mm 1 mps 722 mmHg 88%
    19:00 +15°C° 0.8 mm 1 mps 722 mmHg 92%
    20:00 +15°C° 0.5 mm 1 mps 723 mmHg 92%
    21:00 +15°C° 0.5 mm 1 mps 723 mmHg 93%
    22:00 +14°C° 0.5 mm 1 mps 723 mmHg 93%
    23:00 +14°C° 0.1 mm 1 mps 723 mmHg 93%

    Tomorrow, 24 September, Tuesday

    Time Temperature Precipitation Wind Pressure Humidity
    00:00 +14°C° 0.1 mm 1 mps 723 mmHg 92%
    01:00 +14°C° 0.1 mm 1 mps 723 mmHg 92%
    02:00 +14°C° 0 mm 1 mps 723 mmHg 91%
    03:00 +14°C° 0 mm 1 mps 723 mmHg 91%
    04:00 +14°C° 0 mm 1 mps 723 mmHg 90%
    05:00 +14°C° 0 mm 1 mps 723 mmHg 90%
    06:00 +14°C° 0 mm 1 mps 723 mmHg 89%
    07:00 +14°C° 0 mm 1 mps 723 mmHg 89%
    08:00 +15°C° 0 mm 1 mps 723 mmHg 84%
    09:00 +18°C° 0 mm 1 mps 723 mmHg 79%
    10:00 +17°C° 0 mm 0 mps 724 mmHg 74%
    11:00 +18°C° 0 mm 0 mps 723 mmHg 69%
    12:00 +21°C° 0 mm 1 mps 723 mmHg 64%
    13:00 +22°C° 0 mm 1 mps 723 mmHg 59%
    14:00 +22°C° 0.1 mm 1 mps 722 mmHg 62%
    15:00 +21°C° 0.1 mm 1 mps 722 mmHg 64%
    16:00 +21°C° 0.1 mm 1 mps 721 mmHg 66%
    17:00 +19°C° 0 mm 1 mps 721 mmHg 72%
    18:00 +18°C° 0 mm 1 mps 721 mmHg 78%
    19:00 +15°C° 0 mm 0 mps 721 mmHg 84%
    20:00 +14°C° 0 mm 0 mps 721 mmHg 86%
    21:00 +14°C° 0 mm 0 mps 721 mmHg 87%
    22:00 +13°C° 0 mm 0 mps 721 mmHg 89%
    23:00 +14°C° 0 mm 1 mps 721 mmHg 89%

    Day after tomorrow, 25 September, Wednesday

    Time Temperature Precipitation Wind Pressure Humidity
    00:00 +14°C° 0 mm 1 mps 721 mmHg 90%
    01:00 +13°C° 0 mm 1 mps 721 mmHg 90%
    02:00 +13°C° 0 mm 1 mps 721 mmHg 90%
    03:00 +13°C° 0 mm 1 mps 721 mmHg 90%
    04:00 +13°C° 0 mm 1 mps 720 mmHg 90%
    05:00 +14°C° 0 mm 1 mps 720 mmHg 89%
    06:00 +14°C° 0 mm 1 mps 720 mmHg 87%
    07:00 +15°C° 0 mm 1 mps 720 mmHg 86%
    08:00 +16°C° 0 mm 1 mps 721 mmHg 81%
    09:00 +18°C° 0 mm 1 mps 721 mmHg 76%
    10:00 +20°C° 0 mm 1 mps 721 mmHg 71%
    11:00 +20°C° 0.5 mm 1 mps 721 mmHg 72%
    12:00 +20°C° 0.5 mm 1 mps 721 mmHg 73%
    13:00 +18°C° 0.5 mm 0 mps 721 mmHg 74%
    14:00 +19°C° 1 mm 1 mps 721 mmHg 79%
    15:00 +18°C° 1 mm 1 mps 721 mmHg 84%
    16:00 +15°C° 1 mm 2 mps 721 mmHg 90%
    17:00 +15°C° 0.7 mm 2 mps 721 mmHg 91%
    18:00 +14°C° 0.7 mm 1 mps 721 mmHg 92%
    19:00 +13°C° 0.7 mm 1 mps 721 mmHg 93%
    20:00 +13°C° 1.1 mm 1 mps 722 mmHg 93%
    21:00 +13°C° 1.1 mm 1 mps 722 mmHg 93%
    22:00 +13°C° 1.1 mm 1 mps 722 mmHg 94%
    23:00 +13°C° 0.4 mm 1 mps 722 mmHg 93%

    26 September, Thursday

    Time Temperature Precipitation Wind Pressure Humidity
    00:00 +13°C° 0.4 mm 1 mps 722 mmHg 93%
    01:00 +13°C° 0.4 mm 1 mps 722 mmHg 92%
    02:00 +13°C° 0 mm 1 mps 723 mmHg 92%
    03:00 +12°C° 0 mm 1 mps 723 mmHg 91%
    04:00 +11°C° 0 mm 0 mps 723 mmHg 91%
    05:00 +12°C° 0 mm 1 mps 723 mmHg 90%
    06:00 +12°C° 0 mm 1 mps 724 mmHg 90%
    07:00 +12°C° 0 mm 1 mps 724 mmHg 89%
    08:00 +15°C° 0 mm 1 mps 724 mmHg 80%
    09:00 +18°C° 0 mm 1 mps 725 mmHg 72%
    10:00 +20°C° 0 mm 1 mps 725 mmHg 63%
    11:00 +20°C° 0 mm 1 mps 725 mmHg 59%
    12:00 +21°C° 0 mm 1 mps 725 mmHg 55%
    13:00 +22°C° 0 mm 1 mps 725 mmHg 51%
    14:00 +21°C° 0 mm 1 mps 725 mmHg 55%
    15:00 +21°C° 0 mm 1 mps 725 mmHg 59%
    16:00 +20°C° 0 mm 1 mps 725 mmHg 63%
    17:00 +19°C° 0 mm 1 mps 725 mmHg 68%
    18:00 +16°C° 0 mm 1 mps 725 mmHg 73%
    19:00 +15°C° 0 mm 1 mps 726 mmHg 79%
    20:00 +14°C° 0 mm 1 mps 726 mmHg 80%
    21:00 +14°C° 0 mm 1 mps 726 mmHg 82%
    22:00 +13°C° 0 mm 1 mps 726 mmHg 83%
    23:00 +13°C° 0 mm 1 mps 726 mmHg 83%

    27 September, Friday

    Time Temperature Precipitation Wind Pressure Humidity
    00:00 +13°C° 0 mm 1 mps 726 mmHg 84%
    01:00 +13°C° 0 mm 1 mps 726 mmHg 84%
    02:00 +13°C° 0 mm 1 mps 726 mmHg 83%
    03:00 +13°C° 0 mm 1 mps 726 mmHg 82%
    04:00 +14°C° 0 mm 1 mps 726 mmHg 81%
    05:00 +14°C° 0 mm 1 mps 726 mmHg 81%
    06:00 +14°C° 0 mm 1 mps 726 mmHg 82%
    07:00 +14°C° 0 mm 1 mps 726 mmHg 82%
    08:00 +16°C° 0 mm 1 mps 726 mmHg 75%
    09:00 +19°C° 0 mm 1 mps 726 mmHg 67%
    10:00 +19°C° 0 mm 0 mps 727 mmHg 60%
    11:00 +22°C° 0 mm 1 mps 726 mmHg 58%
    12:00 +22°C° 0 mm 1 mps 726 mmHg 56%
    13:00 +23°C° 0 mm 1 mps 725 mmHg 55%
    14:00 +23°C° 0 mm 1 mps 725 mmHg 58%
    15:00 +22°C° 0 mm 1 mps 725 mmHg 61%
    16:00 +22°C° 0 mm 1 mps 724 mmHg 64%
    17:00 +20°C° 0 mm 1 mps 724 mmHg 71%
    18:00 +18°C° 0 mm 1 mps 724 mmHg 78%
    19:00 +14°C° 0 mm 0 mps 724 mmHg 86%
    20:00 +15°C° 0 mm 1 mps 725 mmHg 86%
    21:00 +14°C° 0 mm 1 mps 725 mmHg 87%
    22:00 +14°C° 0 mm 1 mps 725 mmHg 88%
    23:00 +14°C° 0 mm 1 mps 725 mmHg 88%

    28 September, Saturday

    Time Temperature Precipitation Wind Pressure Humidity
    00:00 +14°C° 0 mm 1 mps 725 mmHg 88%
    01:00 +14°C° 0 mm 1 mps 725 mmHg 88%
    02:00 +13°C° 0 mm 1 mps 725 mmHg 89%
    03:00 +13°C° 0 mm 1 mps 725 mmHg 89%
    04:00 +13°C° 0 mm 1 mps 724 mmHg 89%
    05:00 +14°C° 0 mm 1 mps 725 mmHg 87%
    06:00 +14°C° 0 mm 1 mps 725 mmHg 85%
    07:00 +14°C° 0 mm 0 mps 725 mmHg 82%
    08:00 +15°C° 0 mm 0 mps 725 mmHg 77%
    09:00 +17°C° 0 mm 0 mps 725 mmHg 73%
    10:00 +18°C° 0 mm 0 mps 726 mmHg 68%
    11:00 +21°C° 0.1 mm 1 mps 725 mmHg 67%
    12:00 +21°C° 0.1 mm 1 mps 725 mmHg 66%
    13:00 +22°C° 0.1 mm 1 mps 725 mmHg 65%
    14:00 +21°C° 0.3 mm 1 mps 725 mmHg 69%
    15:00 +21°C° 0.3 mm 1 mps 725 mmHg 74%
    16:00 +20°C° 0.3 mm 1 mps 724 mmHg 78%
    17:00 +19°C° 0.1 mm 1 mps 724 mmHg 82%
    18:00 +18°C° 0.1 mm 1 mps 725 mmHg 85%
    19:00 +16°C° 0.1 mm 1 mps 725 mmHg 89%
    20:00 +14°C° 0 mm 0 mps 725 mmHg 89%
    21:00 +14°C° 0 mm 0 mps 725 mmHg 90%
    22:00 +14°C° 0 mm 0 mps 726 mmHg 90%
    23:00 +14°C° 0 mm 0 mps 726 mmHg 90%
    Show more